Hourly Weather Rudevichi

Today, 16 April, Friday

Time Temperature Precipitation Wind Pressure Humidity
00:00 +3°C° 0 mm 6 mps 747 mmHg 93%
01:00 +3°C° 0 mm 6 mps 747 mmHg 93%
02:00 +4°C° 0 mm 6 mps 747 mmHg 93%
03:00 +4°C° 0 mm 6 mps 747 mmHg 93%
04:00 +5°C° 0 mm 5 mps 747 mmHg 93%
05:00 +5°C° 0 mm 5 mps 747 mmHg 93%
06:00 +3°C° 0.8 mm 6 mps 746 mmHg 93%
07:00 +3°C° 0.8 mm 6 mps 746 mmHg 93%
08:00 +3°C° 0.8 mm 6 mps 746 mmHg 93%
09:00 +4°C° 0.3 mm 6 mps 747 mmHg 93%
10:00 +4°C° 0.3 mm 6 mps 747 mmHg 92%
11:00 +4°C° 0.3 mm 6 mps 747 mmHg 92%
12:00 +5°C° 0 mm 6 mps 747 mmHg 89%
13:00 +8°C° 0 mm 6 mps 748 mmHg 86%
14:00 +9°C° 0 mm 6 mps 748 mmHg 82%
15:00 +9°C° 0 mm 6 mps 748 mmHg 83%
16:00 +9°C° 0 mm 6 mps 748 mmHg 83%
17:00 +9°C° 0 mm 6 mps 748 mmHg 84%
18:00 +9°C° 0 mm 6 mps 748 mmHg 86%
19:00 +8°C° 0 mm 6 mps 748 mmHg 87%
20:00 +7°C° 0 mm 5 mps 749 mmHg 89%
21:00 +7°C° 0 mm 5 mps 749 mmHg 91%
22:00 +7°C° 0 mm 5 mps 749 mmHg 92%
23:00 +7°C° 0 mm 5 mps 749 mmHg 94%

Tomorrow, 17 April, Saturday

Time Temperature Precipitation Wind Pressure Humidity
00:00 +7°C° 0.3 mm 5 mps 749 mmHg 94%
01:00 +7°C° 0.3 mm 5 mps 749 mmHg 94%
02:00 +7°C° 0.3 mm 4 mps 749 mmHg 94%
03:00 +7°C° 0.1 mm 4 mps 749 mmHg 94%
04:00 +7°C° 0.1 mm 4 mps 749 mmHg 94%
05:00 +7°C° 0.1 mm 4 mps 749 mmHg 94%
06:00 +7°C° 0 mm 4 mps 750 mmHg 93%
07:00 +7°C° 0 mm 4 mps 750 mmHg 92%
08:00 +8°C° 0 mm 4 mps 750 mmHg 91%
09:00 +8°C° 0 mm 4 mps 750 mmHg 90%
10:00 +8°C° 0 mm 4 mps 751 mmHg 89%
11:00 +8°C° 0 mm 4 mps 751 mmHg 88%
12:00 +10°C° 0.1 mm 4 mps 751 mmHg 84%
13:00 +11°C° 0.1 mm 4 mps 751 mmHg 80%
14:00 +11°C° 0.1 mm 4 mps 751 mmHg 76%
15:00 +11°C° 0.1 mm 4 mps 751 mmHg 76%
16:00 +10°C° 0.1 mm 5 mps 751 mmHg 76%
17:00 +10°C° 0.1 mm 5 mps 751 mmHg 76%
18:00 +11°C° 0 mm 4 mps 751 mmHg 78%
19:00 +10°C° 0 mm 4 mps 751 mmHg 81%
20:00 +9°C° 0 mm 3 mps 751 mmHg 83%
21:00 +8°C° 0 mm 4 mps 751 mmHg 84%
22:00 +8°C° 0 mm 4 mps 751 mmHg 84%
23:00 +8°C° 0 mm 4 mps 751 mmHg 84%

Day after tomorrow, 18 April, Sunday

Time Temperature Precipitation Wind Pressure Humidity
00:00 +8°C° 0 mm 4 mps 751 mmHg 87%
01:00 +7°C° 0 mm 4 mps 751 mmHg 89%
02:00 +6°C° 0 mm 4 mps 751 mmHg 91%
03:00 +6°C° 0 mm 4 mps 751 mmHg 91%
04:00 +5°C° 0 mm 4 mps 751 mmHg 91%
05:00 +4°C° 0 mm 4 mps 751 mmHg 91%
06:00 +5°C° 0 mm 4 mps 751 mmHg 85%
07:00 +6°C° 0 mm 5 mps 751 mmHg 79%
08:00 +7°C° 0 mm 5 mps 751 mmHg 73%
09:00 +8°C° 0 mm 5 mps 751 mmHg 69%
10:00 +10°C° 0 mm 5 mps 751 mmHg 65%
11:00 +12°C° 0 mm 5 mps 751 mmHg 61%
12:00 +12°C° 0 mm 5 mps 751 mmHg 61%
13:00 +12°C° 0 mm 5 mps 751 mmHg 61%
14:00 +13°C° 0 mm 5 mps 751 mmHg 61%
15:00 +12°C° 0 mm 5 mps 751 mmHg 64%
16:00 +11°C° 0 mm 4 mps 751 mmHg 68%
17:00 +10°C° 0 mm 4 mps 751 mmHg 71%
18:00 +8°C° 0 mm 4 mps 751 mmHg 72%
19:00 +8°C° 0 mm 4 mps 751 mmHg 73%
20:00 +7°C° 0 mm 4 mps 751 mmHg 75%
21:00 +6°C° 0 mm 4 mps 751 mmHg 76%
22:00 +6°C° 0 mm 4 mps 751 mmHg 78%
23:00 +5°C° 0 mm 3 mps 751 mmHg 80%

19 April, Monday

Time Temperature Precipitation Wind Pressure Humidity
00:00 +5°C° 0 mm 3 mps 751 mmHg 83%
01:00 +4°C° 0 mm 3 mps 751 mmHg 87%
02:00 +4°C° 0 mm 3 mps 751 mmHg 90%
03:00 +3°C° 0 mm 3 mps 751 mmHg 91%
04:00 +3°C° 0 mm 3 mps 751 mmHg 91%
05:00 +3°C° 0 mm 3 mps 751 mmHg 91%
06:00 +4°C° 0 mm 4 mps 751 mmHg 89%
07:00 +4°C° 0 mm 4 mps 751 mmHg 87%
08:00 +5°C° 0 mm 4 mps 751 mmHg 85%
09:00 +6°C° 0 mm 4 mps 750 mmHg 82%
10:00 +6°C° 0 mm 5 mps 750 mmHg 80%
11:00 +6°C° 0 mm 5 mps 750 mmHg 77%
12:00 +7°C° 0.1 mm 5 mps 750 mmHg 74%
13:00 +8°C° 0.1 mm 5 mps 750 mmHg 71%
14:00 +8°C° 0.1 mm 6 mps 749 mmHg 68%
15:00 +8°C° 0.1 mm 5 mps 749 mmHg 73%
16:00 +7°C° 0.1 mm 5 mps 749 mmHg 79%
17:00 +6°C° 0.1 mm 5 mps 749 mmHg 84%
18:00 +6°C° 0.1 mm 5 mps 748 mmHg 85%
19:00 +6°C° 0.1 mm 5 mps 748 mmHg 86%
20:00 +6°C° 0.1 mm 5 mps 748 mmHg 87%
21:00 +6°C° 0.3 mm 5 mps 747 mmHg 87%
22:00 +5°C° 0.3 mm 6 mps 747 mmHg 86%
23:00 +5°C° 0.3 mm 6 mps 747 mmHg 86%

20 April, Tuesday

Time Temperature Precipitation Wind Pressure Humidity
00:00 +5°C° 0.1 mm 6 mps 746 mmHg 87%
01:00 +5°C° 0.1 mm 5 mps 746 mmHg 88%
02:00 +5°C° 0.1 mm 5 mps 746 mmHg 89%
03:00 +5°C° 0 mm 5 mps 745 mmHg 89%
04:00 +5°C° 0 mm 5 mps 745 mmHg 89%
05:00 +5°C° 0 mm 5 mps 745 mmHg 89%
06:00 +5°C° 0.1 mm 5 mps 744 mmHg 91%
07:00 +3°C° 0.1 mm 5 mps 744 mmHg 92%
08:00 +3°C° 0.1 mm 5 mps 743 mmHg 94%
09:00 +3°C° 0.2 mm 5 mps 743 mmHg 94%
10:00 +4°C° 0.2 mm 6 mps 742 mmHg 93%
11:00 +4°C° 0.2 mm 6 mps 741 mmHg 93%
12:00 +4°C° 0.2 mm 6 mps 740 mmHg 93%
13:00 +3°C° 0.2 mm 6 mps 739 mmHg 93%
14:00 +3°C° 0.2 mm 7 mps 738 mmHg 93%
15:00 +3°C° 1.8 mm 7 mps 738 mmHg 94%
16:00 +2°C° 1.8 mm 7 mps 737 mmHg 95%
17:00 +2°C° 1.8 mm 7 mps 736 mmHg 96%
18:00 +2°C° 1.6 mm 7 mps 735 mmHg 96%
19:00 +2°C° 1.6 mm 7 mps 734 mmHg 96%
20:00 +2°C° 1.6 mm 7 mps 733 mmHg 96%
21:00 +2°C° 1.3 mm 7 mps 733 mmHg 96%
22:00 +2°C° 1.3 mm 7 mps 732 mmHg 96%
23:00 +2°C° 1.3 mm 6 mps 731 mmHg 96%

21 April, Wednesday

Time Temperature Precipitation Wind Pressure Humidity
00:00 +2°C° 1.3 mm 6 mps 731 mmHg 96%
01:00 +3°C° 1.3 mm 6 mps 730 mmHg 96%
02:00 +3°C° 1.3 mm 5 mps 730 mmHg 96%
03:00 +3°C° 0.6 mm 5 mps 730 mmHg 96%
04:00 +4°C° 0.6 mm 4 mps 730 mmHg 97%
05:00 +4°C° 0.6 mm 4 mps 729 mmHg 97%
06:00 +4°C° 0.4 mm 4 mps 729 mmHg 97%
07:00 +4°C° 0.4 mm 3 mps 729 mmHg 97%
08:00 +4°C° 0.4 mm 3 mps 730 mmHg 97%
09:00 +4°C° 0.2 mm 3 mps 730 mmHg 97%
10:00 +4°C° 0.2 mm 4 mps 730 mmHg 96%
11:00 +4°C° 0.2 mm 4 mps 731 mmHg 96%
12:00 +4°C° 0.3 mm 4 mps 731 mmHg 96%
13:00 +3°C° 0.3 mm 4 mps 732 mmHg 96%
14:00 +2°C° 0.3 mm 5 mps 732 mmHg 96%
15:00 +2°C° 0.1 mm 5 mps 733 mmHg 96%
16:00 +1°C° 0.1 mm 5 mps 734 mmHg 96%
17:00 +1°C° 0.1 mm 5 mps 734 mmHg 96%
18:00 +1°C° 0.2 mm 5 mps 735 mmHg 96%
19:00 +1°C° 0.2 mm 5 mps 736 mmHg 96%
20:00 +1°C° 0.2 mm 5 mps 736 mmHg 97%
21:00 +1°C° 0.1 mm 5 mps 737 mmHg 97%
22:00 +1°C° 0.1 mm 5 mps 737 mmHg 96%
23:00 +1°C° 0.1 mm 5 mps 738 mmHg 96%
Show more